This demonstration page uses our WeatherBlox Daily Observations layout. Learn more.

Left ArrowRight Arrow

Hourly Observations for December 27, 2015

Temp ( °F °C ) Dew Point ( °F °C ) Humidity (%) Winds ( mph kmh ) Pressure ( in mb ) Visibility ( mi km ) Precip ( " mm )
12:03 am 00:03 Cloudy 59 15 58 14.4 96 96 E 3 6 29.97 1015 7 11 N/A
12:53 am 00:53 Mostly Cloudy with Mist and Fog 58 14.4 57 13.9 97 97 N N/A 29.98 1015 6 10 N/A
1:53 am 01:53 Cloudy 65 18.3 62 16.7 90 90 VRB 5 7 29.95 1014 10 16 N/A
2:53 am 02:53 Cloudy 67 19.4 64 17.8 91 91 SSW 13 20 29.93 1014 10 16 N/A
3:53 am 03:53 Cloudy 69 20.6 64 17.8 84 84 SW 14 22 29.93 1013 10 16 N/A
4:53 am 04:53 Cloudy 69 20.6 64 17.8 84 84 SW 10 17 29.92 1013 10 16 N/A
5:53 am 05:53 Cloudy with Light Rain 69 20.6 64 17.8 84 84 SSW 8 13 29.90 1012 10 16 0.01 0.25
6:53 am 06:53 Cloudy 70 21.1 64 17.8 82 82 SSW 14 22 29.89 1012 10 16 N/A
7:53 am 07:53 Cloudy 70 21.1 64 17.8 82 82 S 9 15 29.88 1012 10 16 N/A
8:14 am 08:14 Cloudy with Light Rain 63 17.2 58 14.4 84 84 NW 22 35 29.94 1014 7 11 0.01 0.25
8:17 am 08:17 Cloudy with Heavy Rain 61 16.1 57 13.9 87 87 N 22 35 29.94 1014 3 5 0.04 1.02
8:24 am 08:24 Cloudy with Heavy Rain 58 14.4 56 13.3 93 93 N 17 28 29.94 1014 2 3 0.07 1.78
8:35 am 08:35 Cloudy with Heavy Rain 58 14.4 56 13.3 93 93 NNE 17 28 29.94 1014 2 3 0.12 3.05
8:44 am 08:44 Cloudy with Light Rain 58 14.4 56 13.3 93 93 NE 9 15 29.94 1014 10 16 0.12 3.05
8:53 am 08:53 Cloudy 58 14.4 56 13.3 93 93 NNE 7 11 29.94 1014 10 16 0.12 3.05
9:53 am 09:53 Cloudy with Rain 56 13.3 54 12.2 93 93 N 10 17 29.96 1015 3 4 0.08 2.03
10:01 am 10:01 Cloudy with Rain 56 13.3 54 12.2 93 93 NNE 8 13 29.97 1015 4 6 0.03 0.76
10:12 am 10:12 Cloudy with Light Rain 56 13.3 53 11.7 90 90 N 6 9 30.03 1017 6 10 0.05 1.27
10:34 am 10:34 Cloudy with Rain 54 12.2 52 11.1 93 93 NNW 10 17 30.06 1018 3 5 0.13 3.30
10:44 am 10:44 Cloudy with Rain 53 11.7 51 10.6 93 93 N 10 17 30.06 1018 4 6 0.16 4.06
10:53 am 10:53 Cloudy with Rain 53 11.7 51 10.6 93 93 NNW 8 13 30.02 1017 3 5 0.20 5.08
11:14 am 11:14 Cloudy with Rain 52 11.1 50 10 93 93 NNW 10 17 30.06 1018 6 10 0.04 1.02
11:30 am 11:30 Cloudy with Rain 51 10.6 48 8.9 89 89 NNW 13 20 30.09 1019 4 6 0.08 2.03
11:53 am 11:53 Cloudy with Rain 50 10 48 8.9 93 93 NW 12 19 30.07 1018 4 6 0.14 3.56
12:01 pm 12:01 Cloudy with Rain 50 10 48 8.9 93 93 NW 10 17 30.09 1019 4 6 0.02 0.51
12:53 pm 12:53 Cloudy with Light Rain 49 9.4 46 7.8 90 90 NNE 9 15 30.02 1017 6 10 0.13 3.30
1:03 pm 13:03 Cloudy with Light Rain 49 9.4 46 7.8 90 90 NNE 8 13 30.06 1018 6 10 0.01 0.25
1:21 pm 13:21 Cloudy with Light Rain 47 8.3 45 7.2 93 93 N 14 22 30.03 1017 10 16 0.04 1.02
1:53 pm 13:53 Cloudy with Light Rain 47 8.3 44 6.7 90 90 NNE 14 22 30.04 1017 10 16 0.05 1.27
2:17 pm 14:17 Cloudy with Light Rain 47 8.3 44 6.7 90 90 N 10 17 30.09 1019 10 16 N/A
2:29 pm 14:29 Cloudy with Light Rain 47 8.3 43 6.1 86 86 N 9 15 30.09 1019 6 10 0.01 0.25
2:53 pm 14:53 Cloudy 46 7.8 43 6.1 89 89 N 9 15 30.08 1019 10 16 0.01 0.25
3:53 pm 15:53 Cloudy with Light Rain 45 7.2 42 5.6 90 90 NNE 10 17 30.11 1020 6 10 0.01 0.25
4:34 pm 16:34 Cloudy with Light Rain 44 6.7 40 4.4 85 85 NNE 16 26 30.15 1021 7 11 0.04 1.02
4:53 pm 16:53 Cloudy with Rain 43 6.1 39 3.9 86 86 NNE 13 20 30.16 1021 5 8 0.07 1.78
5:32 pm 17:32 Cloudy with Light Rain 42 5.6 38 3.3 85 85 NNE 14 22 30.18 1022 10 16 0.01 0.25
5:53 pm 17:53 Cloudy with Light Rain 42 5.6 38 3.3 85 85 NNE 12 19 30.21 1023 10 16 0.01 0.25
6:23 pm 18:23 Cloudy with Light Rain 42 5.6 38 3.3 85 85 NNE 15 24 30.21 1023 10 16 N/A
6:53 pm 18:53 Cloudy with Light Rain 41 5 37 2.8 86 86 NNE 16 26 30.22 1023 10 16 N/A
7:53 pm 19:53 Cloudy 41 5 37 2.8 86 86 NNE 10 17 30.23 1024 10 16 N/A
8:53 pm 20:53 Cloudy with Light Rain 41 5 36 2.2 82 82 NE 10 17 30.25 1024 10 16 0.01 0.25
9:53 pm 21:53 Cloudy with Light Rain 41 5 36 2.2 82 82 NE 14 22 30.25 1025 10 16 N/A
10:14 pm 22:14 Cloudy with Light Rain 41 5 36 2.2 82 82 NE 13 20 30.24 1024 10 16 0.01 0.25
10:53 pm 22:53 Cloudy 41 5 36 2.2 82 82 ENE 13 20 30.25 1025 10 16 0.01 0.25
11:53 pm 23:53 Cloudy 40 4.4 35 1.7 83 83 ENE 12 19 30.25 1024 10 16 N/A

Powered by AerisWeather